Location: Kresge Environmental Education Center
(43.1138°N, 83.2433°W)
Time: 17:30:02
(UTC-04:00)

Daily predictions for brighter satellites

Satellite Brightness Start Highest point End
(mag) Time Altitude Azimuth Time Altitude Azimuth Time Altitude Azimuth
ERBS 2.9 21:02:37 10° SSW 21:05:49 36° SE 21:09:03 10° ENE
Helios 1A 4.2 21:02:47 10° SE 21:06:20 26° ENE 21:09:54 10° N
Cosmos 2227 Rocket 4.3 21:02:39 10° NW 21:07:18 27° WSW 21:11:58 10° SSW
Envisat 3.1 21:04:36 10° SSE 21:09:37 64° ENE 21:14:39 10° N
Resurs 1-3 3.6 21:05:26 10° SSE 21:09:49 89° ENE 21:14:15 10° NNW
ERS-1 Rocket 4.4 21:06:40 10° ESE 21:10:22 21° ENE 21:14:05 10° NNE
Cosmos 2360 Rocket 4.0 21:14:43 10° ESE 21:15:25 10° E 21:16:07 10° E
Cosmos 1980 Rocket 2.2 21:10:04 10° SSW 21:15:41 82° ESE 21:21:19 10° NNE
ATLAS 3B R/B 4.2 21:10:54 10° NNW 21:16:11 23° NNE 21:21:16 10° E
Cosmos 2056 Rocket 4.0 21:11:06 10° SSW 21:16:11 64° WNW 21:21:22 10° NNE
Atlas Centaur 2 3.8 21:09:39 10° SW 21:16:18 29° S 21:21:48 11° ESE
CZ-2D R/B 3.9 21:13:14 10° S 21:17:03 57° W 21:20:53 10° NNW
Meteor 2-4 Rocket 4.4 21:14:32 10° N 21:19:35 35° ENE 21:24:41 10° SE
YAOGAN 6 3.1 21:20:51 10° SE 21:24:10 38° ENE 21:27:29 10° N
Cosmos 1633 2.5 21:20:50 10° S 21:24:25 88° W 21:28:04 10° N
Cosmos 44 3.1 21:21:33 10° NNW 21:25:58 77° NE 21:30:11 12° SE
S3M 4.1 21:21:29 10° N 21:27:41 62° E 21:33:56 10° SSE
Cosmos 1553 Rocket 3.9 21:25:16 10° N 21:31:28 72° E 21:37:32 10° SSE
Cosmos 1697 Rocket 4.0 21:26:50 10° SW 21:32:13 46° WNW 21:37:39 10° NNE
MINOTAUR R/B 4.4 21:30:36 10° NNW 21:33:20 60° ENE 21:35:09 19° SE
Resurs 01 Rocket 2.8 21:31:45 10° S 21:36:00 44° W 21:40:17 10° NNW
Cosmos 1452 Rocket 3.5 21:34:52 10° SSW 21:40:09 86° ESE 21:45:28 10° NNE
Cosmos 2266 Rocket 4.3 21:34:53 10° SSE 21:40:32 43° E 21:46:12 10° NNE
Cosmos 839 Rocket 3.9 21:35:49 10° SSW 21:42:05 80° ESE 21:48:22 10° NE
Cosmos 1850 Rocket 4.4 21:37:10 10° N 21:42:23 50° ENE 21:46:09 18° SE
Cosmos 2227 4.3 21:38:03 10° NNW 21:43:42 77° WSW 21:49:17 10° SSE
GPS 2-05 Rocket1 4.2 21:41:17 10° SW 21:43:52 21° S 21:44:35 19° SSE
Okean 1 Rocket 3.9 21:41:27 17° SE 21:43:57 29° E 21:47:45 10° NNE
Cosmos 1420 Rocket 3.9 21:40:17 10° S 21:45:24 67° ESE 21:50:33 10° NNE
Meteor 1-11 Rocket 3.8 21:39:36 10° S 21:45:24 65° E 21:51:07 10° NNE
ATLAS 2AS CENTAUR R/B 3.5 21:40:13 10° S 21:46:58 36° ESE 21:54:05 10° NE
CZ-4B DEB 2.9 21:48:27 28° SE 21:49:33 44° ENE 21:52:19 10° N
Cosmos 1300 Rocket 3.6 21:48:31 10° S 21:52:43 54° E 21:56:56 10° NNE
Abrixas rocket 3.6 21:50:14 10° W 21:53:19 37° NNW 21:56:26 10° ENE
Tiangong 1 0.6 21:50:52 10° W 21:53:38 86° S 21:54:37 36° E
NOSS 3-1 (A) 4.2 21:47:58 10° SW 21:53:42 57° NW 22:00:13 10° NNE
Cosmos 2151 Rocket 3.7 21:50:23 10° SSW 21:54:47 78° W 21:59:12 10° N
Cosmos 1602 4.3 21:53:32 10° SSW 21:57:20 60° W 22:01:09 10° N
NOSS 2-3 (E) 4.1 21:53:17 10° S 21:57:42 44° ESE 22:02:45 10° NE
Cosmos 1939 Rocket 3.8 21:59:04 10° S 22:02:56 46° W 22:06:46 10° NNW
Terra 3.8 22:02:21 13° ENE 22:03:35 14° ENE 22:05:56 10° NNE
DELTA 2 R/B (1) 4.2 21:58:41 10° W 22:03:56 42° SSW 22:06:45 24° SE
Cosmos 1025 Rocket 3.7 22:00:37 10° N 22:04:35 36° ENE 22:05:50 29° ESE
Helios 1B rocket 2.3 22:03:43 10° NNE 22:07:51 89° ESE 22:11:57 10° SSW
USA 245 4.4 22:06:58 26° SE 22:09:30 44° ENE 22:13:53 10° N
MetOp-A 4.2 22:06:53 24° SE 22:10:06 63° ENE 22:15:24 10° N
Cosmos 220 Rocket 4.4 22:09:20 10° N 22:13:28 45° ENE 22:14:45 34° ESE
Cosmos 1536 2.8 22:11:13 12° S 22:15:00 85° W 22:19:06 10° N
Meteor 1-23 Rocket 4.1 22:09:33 10° N 22:15:09 75° E 22:18:31 25° SSE
Cosmos 44 Rocket 4.5 22:11:05 10° NW 22:15:24 35° WSW 22:18:49 15° S
GENESIS II 4.3 22:12:08 10° NW 22:16:04 72° WSW 22:17:29 37° SSE
SAR-Lupe-4 3.5 22:17:08 38° SSE 22:18:27 87° WSW 22:22:04 10° NNW
SeaSat 1 4.0 22:14:05 10° NNE 22:18:36 37° NW 22:23:06 10° WSW
Lacrosse 5 rocket 2.3 22:15:27 10° WNW 22:18:50 33° SW 22:20:14 25° S
SL-08 RB Rocket 4.1 22:19:25 35° ESE 22:20:51 48° ENE 22:25:15 10° N
Cosmos 2322 Rocket 2.3 22:17:22 10° SSW 22:23:05 83° WNW 22:28:49 10° NNE
Cosmos 2263 Rocket 2.1 22:19:32 10° NNW 22:25:17 87° ENE 22:28:02 32° SSE
ARGOS 3.1 22:23:10 31° SSE 22:25:43 70° ENE 22:31:05 10° N
BREEZE-M DEB (TANK) 3.3 22:26:01 10° WSW 22:29:26 81° NNW 22:41:04 10° ENE
NOSS 2-3 (C) 3.8 22:26:32 10° SSW 22:31:13 84° SE 22:36:44 10° NE
Meteor 1-29 3.7 22:28:38 10° N 22:31:59 52° WNW 22:34:12 19° SW
SL-16 R/B 2.5 22:26:42 10° SSW 22:32:21 70° WNW 22:38:02 10° NNE
H-2A R/B 2.2 22:31:59 40° ESE 22:33:30 54° ENE 22:38:23 10° N
Cosmos 1844 Rocket 4.0 22:29:08 10° N 22:33:52 26° NE 22:35:38 22° E
SAR-Lupe-1 4.3 22:34:46 46° SSW 22:35:35 63° W 22:39:09 10° NNW
Cosmos 1892 Rocket 4.3 22:32:41 10° N 22:36:49 36° ENE 22:36:54 36° ENE
Cosmos 1515 3.7 22:34:17 10° N 22:38:01 58° ENE 22:38:01 58° ENE
SPOT 5 2.8 22:37:07 44° SSE 22:38:39 73° ENE 22:43:23 10° N
Cosmos 2322 3.9 22:38:31 41° SE 22:39:31 45° ESE 22:44:53 10° NE
USA 238 DEB 4.2 22:35:49 10° NNW 22:42:45 52° NE 22:45:49 32° ESE
USA 238 4.2 22:35:56 10° NNW 22:42:50 52° NE 22:45:55 32° ESE
COSMOS 2428 3.9 22:47:38 25° ENE 22:47:38 25° ENE 22:51:02 10° NE
Cosmos 2219 Rocket 4.2 22:49:09 13° ENE 22:49:09 13° ENE 22:50:01 10° ENE
Lacrosse 5 1.8 22:42:04 10° SSW 22:47:01 57° SE 22:52:00 10° NE
EXPRESS MD2 4.2 22:44:17 10° W 22:47:27 53° NNW 22:53:35 10° ENE
ERS-1 Rocket 3.6 22:46:08 25° SSW 22:48:46 51° W 22:53:41 10° NNW
Okean 2 3.3 22:47:34 10° N 22:51:40 78° W 22:52:05 68° SSW
Cosmos 1544 Rocket 4.4 22:55:00 38° ENE 22:55:00 38° ENE 22:58:23 10° NNE
Cosmos 1500 3.6 22:56:17 54° NE 22:56:17 54° NE 22:59:26 10° NNE
Cosmos 1244 Rocket 4.3 22:54:42 36° S 22:57:21 81° E 23:03:31 10° N
Cosmos 2360 Rocket 2.0 22:55:38 31° SSW 22:58:25 79° ESE 23:04:04 10° NNE
Cosmos 2333 Rocket 4.3 23:03:16 12° ENE 23:03:16 12° ENE 23:04:03 10° ENE
Atlas Centaur 2 3.7 22:59:07 10° WSW 23:04:26 25° SSW 23:04:26 25° SSW
Cosmos 1486 Rocket 4.1 23:01:39 10° NNW 23:06:51 56° ENE 23:07:12 55° E
Cosmos 1455 Rocket 3.8 23:08:11 41° NE 23:08:11 41° NE 23:11:26 10° NNE
ATLAS 3B R/B 2.5 23:01:12 10° NW 23:08:00 79° NE 23:09:41 53° SE
Cosmos 1302 Rocket 4.2 23:10:20 53° E 23:10:20 53° E 23:14:56 10° NNE
DMSP B5D2-2 3.9 23:06:25 10° NNE 23:11:41 70° ESE 23:11:56 69° SE
Cosmos 1110 Rocket 4.3 23:15:27 30° SW 23:17:54 63° WNW 23:23:03 10° NNE
SL-08 R/B 4.4 23:20:22 58° S 23:21:44 81° E 23:28:06 10° N
Landsat 7 3.8 23:25:25 75° W 23:25:25 75° W 23:30:10 10° NNW
Cosmos 2237 Rocket 4.3 23:30:08 13° ENE 23:30:08 13° ENE 23:31:01 10° NE
Cosmos 1975 3.7 23:29:56 47° NNW 23:29:56 47° NNW 23:32:58 10° N
Meteor 1-12 Rocket 4.1 23:28:22 72° SSW 23:29:00 88° WNW 23:34:41 10° N
Meteor 1-21 4.5 23:24:44 10° N 23:30:03 53° ENE 23:30:03 53° ENE
BREEZE-M DEB (TANK) 4.5 23:06:24 10° WSW 23:31:16 84° NNW 23:36:20 11° ENE
Cosmos 1066 Rocket 4.1 23:27:11 10° NNW 23:32:33 71° W 23:32:59 67° SW
SPOT 1/Viking Rocket 4.2 23:33:49 42° SW 23:34:37 45° W 23:39:38 10° NNW
ATLAS 2AS CENTAUR R/B 3.5 23:29:57 10° SW 23:37:38 61° NW 23:45:44 10° NNE
CARTOSAT-1 4.2 23:39:29 54° NW 23:39:29 54° NW 23:42:56 10° NNW
IGS 5A 4.4 23:40:28 47° NNW 23:40:28 47° NNW 23:43:32 10° NNW
Terra 2.1 23:41:15 66° NW 23:41:15 66° NW 23:45:29 10° NNW
Cosmos 1354 Rocket 4.3 23:35:49 10° NNW 23:40:39 57° NE 23:40:39 57° NE
Cosmos 1745 Rocket 4.0 23:50:34 66° SW 23:51:18 74° W 23:57:28 10° N
H-2A R/B 3.2 23:53:26 42° N 23:53:26 42° N 23:56:22 10° NNW
